WetterOnline ( http://www.wetteronline.de )

Wetter aktuell Altusried

Aktuelles Wetter: Kempten (705m)

6-stündlich | Neueste Meldungen
Ortszeit Temperatur Wetter
Mi, 19.09. 2:00 13.4° C wolkenlos
Di, 18.09. 20:00 16.8° C bewölkt
Di, 18.09. 14:00 25.1° C wolkig
Di, 18.09. 8:00 13.6° C wolkenlos
Di, 18.09. 2:00 13.8° C wolkenlos
Mo, 17.09. 20:00 18.3° C wolkenlos
Mo, 17.09. 14:00 23.3° C wolkenlos
Mo, 17.09. 8:00 13.0° C bedeckt
Ortszeit Temperatur Wetter
Mi, 19.09. 7:30 12.9° C leicht bewölkt
Mi, 19.09. 7:20 12.9° C leicht bewölkt
Mi, 19.09. 7:10 12.8° C leicht bewölkt
Mi, 19.09. 7:00 13.6° C bewölkt
Mi, 19.09. 6:50 13.6° C bewölkt
Mi, 19.09. 6:40 13.6° C bewölkt
Mi, 19.09. 6:30 14.0° C bewölkt
Mi, 19.09. 6:00 14.4° C bedeckt
Mi, 19.09. 5:30 14.1° C bedeckt
Mi, 19.09. 5:00 13.7° C bewölkt
Mi, 19.09. 4:30 13.5° C wolkig
Ortszeit Relative Feuchte Sichtweite
Mi, 19.09. 2:00 86% 30 km
Di, 18.09. 20:00 81% 21 km
Di, 18.09. 14:00 39% 23 km
Di, 18.09. 8:00 88% 17 km
Di, 18.09. 2:00 92% 11 km
Mo, 17.09. 20:00 80% 25 km
Mo, 17.09. 14:00 51% 24 km
Mo, 17.09. 8:00 98% 8 km
Ortszeit Relative Feuchte Sichtweite
Mi, 19.09. 7:30 90% 26 km
Mi, 19.09. 7:20 90% -
Mi, 19.09. 7:10 89% -
Mi, 19.09. 7:00 87% 28 km
Mi, 19.09. 6:50 87% -
Mi, 19.09. 6:40 86% -
Mi, 19.09. 6:30 85% 30 km
Mi, 19.09. 6:00 82% 30 km
Mi, 19.09. 5:30 83% 30 km
Mi, 19.09. 5:00 86% 29 km
Mi, 19.09. 4:30 87% 28 km
Ortszeit Niederschlagsmenge Niederschlagsart
Mi, 19.09. 2:00 0.0 l/m2 in 6 Std. -
Di, 18.09. 20:00 0.1 l/m2 in 12 Std. Regen
Di, 18.09. 14:00 0.0 l/m2 in 6 Std. -
Di, 18.09. 8:00 0.0 l/m2 in 12 Std. -
Di, 18.09. 2:00 0.0 l/m2 in 6 Std. -
Mo, 17.09. 20:00 0.0 l/m2 in 12 Std. -
Mo, 17.09. 14:00 0.0 l/m2 in 6 Std. -
Mo, 17.09. 8:00 0.1 l/m2 in 12 Std. -
Ortszeit Niederschlagsmenge Niederschlagsart
Mi, 19.09. 7:30 0.0 l/m2 in 1 Std. -
Mi, 19.09. 7:20 keine Meldung -
Mi, 19.09. 7:10 keine Meldung -
Mi, 19.09. 7:00 0.0 l/m2 in 1 Std. -
Mi, 19.09. 6:50 keine Meldung -
Mi, 19.09. 6:40 keine Meldung -
Mi, 19.09. 6:30 0.0 l/m2 in 1 Std. -
Mi, 19.09. 6:00 0.0 l/m2 in 1 Std. -
Mi, 19.09. 5:30 0.0 l/m2 in 1 Std. -
Mi, 19.09. 5:00 0.0 l/m2 in 1 Std. -
Mi, 19.09. 4:30 0.0 l/m2 in 1 Std. -
Ortszeit Stärke Spitze Richtung
km/h Bft. km/h Grad Sektor
Mi, 19.09. 2:00 9 2 17 130° SO
Di, 18.09. 20:00 6 1 31 110° O
Di, 18.09. 14:00 11 2 25 280° W
Di, 18.09. 8:00 6 1 15 140° SO
Di, 18.09. 2:00 7 2 14 100° O
Mo, 17.09. 20:00 4 1 18 90° O
Mo, 17.09. 14:00 6 1 17 350° N
Mo, 17.09. 8:00 6 1 11 120° SO
Ortszeit Stärke Spitze Richtung
km/h Bft. km/h Grad Sektor
Mi, 19.09. 7:30 6 1 9 120° SO
Mi, 19.09. 7:20 6 1 - 120° SO
Mi, 19.09. 7:10 4 1 - 110° O
Mi, 19.09. 7:00 2 1 13 90° O
Mi, 19.09. 6:50 2 1 - 90° O
Mi, 19.09. 6:40 9 2 - 130° SO
Mi, 19.09. 6:30 4 1 14 80° O
Mi, 19.09. 6:00 7 2 15 130° SO
Mi, 19.09. 5:30 7 2 14 190° S
Mi, 19.09. 5:00 6 1 9 180° S
Mi, 19.09. 4:30 0 0 7 - -
Ortszeit Untergrenze Bedeckung Gattung
total tief tief mittel hoch
Mi, 19.09. 2:00 - 0/8 0/8 - - -
Di, 18.09. 20:00 3000 m 7/8 7/8 - - -
Di, 18.09. 14:00 1800 m 6/8 6/8 - - -
Di, 18.09. 8:00 - 0/8 0/8 - - -
Di, 18.09. 2:00 - 0/8 0/8 - - -
Mo, 17.09. 20:00 - 0/8 0/8 - - -
Mo, 17.09. 14:00 - 0/8 0/8 - - -
Mo, 17.09. 8:00 1800 m 8/8 8/8 - - -
Ortszeit Bedeckungsgrad in Achtel und Wolkenuntergrenze
Mi, 19.09. 7:30 2(3600m)
Mi, 19.09. 7:20 2(3600m)
Mi, 19.09. 7:10 1(2700m) 4(3600m)
Mi, 19.09. 7:00 5(3000m) 7(3600m)
Mi, 19.09. 6:50 5(3000m) 7(3600m)
Mi, 19.09. 6:40 6(2700m) 7(3600m)
Mi, 19.09. 6:30 7(3000m)
Mi, 19.09. 6:00 8(3000m)
Mi, 19.09. 5:30 8(2700m)
Mi, 19.09. 5:00 4(2100m) 8(3000m)
Mi, 19.09. 4:30 2(2100m) 8(3600m)
Ortszeit Luftdruck NN (hPa) Tendenz (hPa in 3 Std.)
Mi, 19.09. 2:00 1021 + 0,3
Di, 18.09. 20:00 1018 - 0,2
Di, 18.09. 14:00 1016 - 0,4
Di, 18.09. 8:00 1019 + 0,9
Di, 18.09. 2:00 1018 - 0,7
Mo, 17.09. 20:00 1018 - 0,5
Mo, 17.09. 14:00 1018 - 1,1
Mo, 17.09. 8:00 1023 + 1,1
Ortszeit Luftdruck NN (hPa) Tendenz (hPa in 3 Std.)
Mi, 19.09. 7:30 1022 + 0,5
Mi, 19.09. 7:20 1022 keine Meldung
Mi, 19.09. 7:10 1022 keine Meldung
Mi, 19.09. 7:00 1021 + 0,4
Mi, 19.09. 6:50 1021 keine Meldung
Mi, 19.09. 6:40 1021 keine Meldung
Mi, 19.09. 6:30 1021 + 0,3
Mi, 19.09. 6:00 1021 - 0,1
Mi, 19.09. 5:30 1021 + 0,2
Mi, 19.09. 5:00 1021 + 0,1
Mi, 19.09. 4:30 1021 + 0,3
Ortszeit Schneehöhe (cm)
Mi, 19.09. 2:00 -
Di, 18.09. 20:00 -
Di, 18.09. 14:00 -
Di, 18.09. 8:00 -
Di, 18.09. 2:00 -
Mo, 17.09. 20:00 -
Mo, 17.09. 14:00 -
Mo, 17.09. 8:00 -
Ortszeit Schneehöhe (cm)
Mi, 19.09. 7:30 -
Mi, 19.09. 7:20 -
Mi, 19.09. 7:10 -
Mi, 19.09. 7:00 -
Mi, 19.09. 6:50 -
Mi, 19.09. 6:40 -
Mi, 19.09. 6:30 -
Mi, 19.09. 6:00 -
Mi, 19.09. 5:30 -
Mi, 19.09. 5:00 -
Mi, 19.09. 4:30 -
Link zu dieser Seite / Seite empfehlen

Das Wetter in ...